This demonstration page uses our WeatherBlox Daily Observations layout. Learn more.

Left ArrowRight Arrow

41.86663, -103.66717

Hourly Observations for September 24, 2021

Temp ( °F °C ) Dew Point ( °F °C ) Humidity (%) Winds ( mph kmh ) Pressure ( in mb ) Visibility ( mi km ) Precip ( " mm )
12:53 am 00:53 Clear 52 11.1 38 3.3 59 59 W 3 6 29.99 1016 10 16 N/A
1:53 am 01:53 Clear 52 11.1 39 3.9 61 61 W 5 7 29.99 1016 10 16 N/A
2:53 am 02:53 Clear 51 10.6 39 3.9 64 64 NW 5 7 30.01 1016 10 16 N/A
3:53 am 03:53 Clear 50 10 38 3.3 63 63 NW 5 7 30.04 1017 10 16 N/A
4:53 am 04:53 Clear 50 10 38 3.3 63 63 undefined N/A 30.06 1018 10 16 N/A
5:53 am 05:53 Clear 51 10.6 38 3.3 61 61 W 5 7 30.09 1019 10 16 N/A
6:53 am 06:53 Sunny 48 8.9 38 3.3 68 68 NW 7 11 30.13 1020 10 16 N/A
7:53 am 07:53 Sunny 49 9.4 39 3.9 69 69 WNW 7 11 30.15 1021 10 16 N/A
8:53 am 08:53 Sunny 56 13.3 38 3.3 51 51 WNW 12 19 30.15 1021 10 16 N/A
9:53 am 09:53 Sunny 63 17.2 40 4.4 43 43 WNW 9 15 30.16 1022 10 16 N/A
10:53 am 10:53 Sunny 67 19.4 40 4.4 37 37 W 9 15 30.15 1021 10 16 N/A
11:53 am 11:53 Sunny 71 21.7 35 1.7 27 27 NNW 12 19 30.12 1020 10 16 N/A
12:53 pm 12:53 Sunny 72 22.2 36 2.2 27 27 WNW 7 11 30.12 1020 10 16 N/A
1:53 pm 13:53 Sunny 73 22.8 36 2.2 26 26 VRB 5 7 30.09 1019 10 16 N/A
2:53 pm 14:53 Sunny 75 23.9 36 2.2 24 24 VRB 3 6 30.07 1018 10 16 N/A
3:53 pm 15:53 Sunny 75 23.9 36 2.2 24 24 N N/A 30.06 1018 10 16 N/A
4:53 pm 16:53 Sunny 75 23.9 35 1.7 23 23 W 6 9 30.05 1018 10 16 N/A
5:53 pm 17:53 Sunny 74 23.3 35 1.7 24 24 N N/A 30.05 1018 10 16 N/A
6:53 pm 18:53 Clear 64 17.8 39 3.9 40 40 ESE 6 9 30.09 1019 10 16 N/A
7:53 pm 19:53 Clear 58 14.4 40 4.4 51 51 E 7 11 30.12 1020 10 16 N/A
8:53 pm 20:53 Clear 57 13.9 40 4.4 53 53 ESE 8 13 30.12 1020 10 16 N/A
9:53 pm 21:53 Clear 52 11.1 40 4.4 64 64 E 7 11 30.11 1020 10 16 N/A
10:53 pm 22:53 Clear 50 10 39 3.9 66 66 ESE 7 11 30.11 1020 10 16 N/A
11:53 pm 23:53 Clear 49 9.4 39 3.9 69 69 E 8 13 30.11 1020 10 16 N/A

Powered by AerisWeather